GJS4508 KIAD-KPWM

Flight info

Callsign GJS4508
Flight time 1h 13m
Altitude 29000
Route JERES2 JERES Q221 BIGEO J49 HNK CAM CDOGG4
Aircraft CRJ7/M-SDFGIRWY/S

Departure

Time 2026-04-25 15:56
Airport Washington Dulles International Airport (KIAD)

Arrival

Time 2026-04-25 17:10
Airport Portland International Jetport (KPWM)
Time Latitude Longitude Altitude Speed Heading
2026-04-25 15:15 38.94927 -77.44290 293 ft 0 kts 221°
2026-04-25 15:38 38.94930 -77.44288 296 ft 2 kts 221°
2026-04-25 15:39 38.94939 -77.44278 295 ft 2 kts 209°
2026-04-25 15:39 38.94951 -77.44274 293 ft 2 kts 184°
2026-04-25 15:39 38.94963 -77.44274 293 ft 2 kts 177°
2026-04-25 15:39 38.94975 -77.44275 297 ft 2 kts 169°
2026-04-25 15:40 38.94986 -77.44280 294 ft 2 kts 154°
2026-04-25 15:40 38.94991 -77.44283 296 ft 0 kts 143°
2026-04-25 15:40 38.94992 -77.44285 295 ft 0 kts 131°
2026-04-25 15:43 38.94992 -77.44284 296 ft 0 kts 124°
2026-04-25 15:43 38.94989 -77.44277 296 ft 2 kts 108°
2026-04-25 15:44 38.94988 -77.44269 295 ft 0 kts 98°
2026-04-25 15:44 38.94990 -77.44251 296 ft 4 kts 73°
2026-04-25 15:44 38.95003 -77.44219 296 ft 4 kts 57°
2026-04-25 15:44 38.95018 -77.44197 296 ft 4 kts 39°
2026-04-25 15:45 38.95042 -77.44183 298 ft 5 kts
2026-04-25 15:45 38.95085 -77.44187 301 ft 6 kts 330°
2026-04-25 15:45 38.95104 -77.44242 302 ft 8 kts 274°
2026-04-25 15:45 38.95104 -77.44266 298 ft 0 kts 271°
2026-04-25 15:46 38.95104 -77.44268 300 ft 2 kts 271°
2026-04-25 15:46 38.95105 -77.44323 298 ft 8 kts 270°
2026-04-25 15:47 38.95106 -77.44402 297 ft 10 kts 270°
2026-04-25 15:47 38.95107 -77.44489 297 ft 11 kts 271°
2026-04-25 15:47 38.95108 -77.44592 297 ft 12 kts 271°
2026-04-25 15:47 38.95109 -77.44704 296 ft 13 kts 270°
2026-04-25 15:48 38.95110 -77.44803 296 ft 11 kts 270°
2026-04-25 15:48 38.95110 -77.44904 296 ft 12 kts 271°
2026-04-25 15:48 38.95111 -77.45014 296 ft 12 kts 271°
2026-04-25 15:48 38.95113 -77.45124 296 ft 12 kts 270°
2026-04-25 15:49 38.95114 -77.45240 292 ft 15 kts 271°
2026-04-25 15:49 38.95116 -77.45378 286 ft 16 kts 270°
2026-04-25 15:49 38.95116 -77.45486 288 ft 7 kts 270°
2026-04-25 15:49 38.95116 -77.45491 287 ft 0 kts 271°
2026-04-25 15:50 38.95116 -77.45497 285 ft 3 kts 271°
2026-04-25 15:50 38.95116 -77.45552 281 ft 8 kts 269°
2026-04-25 15:50 38.95077 -77.45601 278 ft 9 kts 186°
2026-04-25 15:50 38.95009 -77.45604 279 ft 9 kts 180°
2026-04-25 15:51 38.94948 -77.45604 280 ft 8 kts 180°
2026-04-25 15:51 38.94909 -77.45605 280 ft 9 kts 180°
2026-04-25 15:51 38.94825 -77.45605 281 ft 10 kts 180°
2026-04-25 15:51 38.94738 -77.45606 281 ft 15 kts 180°
2026-04-25 15:52 38.94629 -77.45608 281 ft 16 kts 181°
2026-04-25 15:52 38.94524 -77.45609 283 ft 15 kts 180°
2026-04-25 15:52 38.94419 -77.45610 284 ft 15 kts 180°
2026-04-25 15:52 38.94310 -77.45612 284 ft 16 kts 181°
2026-04-25 15:53 38.94195 -77.45614 283 ft 17 kts 181°
2026-04-25 15:53 38.94080 -77.45616 283 ft 15 kts 181°
2026-04-25 15:53 38.93986 -77.45618 283 ft 13 kts 181°
2026-04-25 15:53 38.93895 -77.45619 282 ft 12 kts 180°
2026-04-25 15:54 38.93821 -77.45621 281 ft 10 kts 182°
2026-04-25 15:54 38.93756 -77.45624 281 ft 10 kts 182°
2026-04-25 15:54 38.93688 -77.45638 281 ft 11 kts 198°
2026-04-25 15:54 38.93604 -77.45677 277 ft 15 kts 199°
2026-04-25 15:55 38.93508 -77.45722 275 ft 13 kts 200°
2026-04-25 15:55 38.93448 -77.45756 276 ft 9 kts 223°
2026-04-25 15:55 38.93432 -77.45839 276 ft 12 kts 284°
2026-04-25 15:55 38.93489 -77.46035 276 ft 51 kts 291°
2026-04-25 15:56 38.93710 -77.46802 282 ft 128 kts 291°
2026-04-25 15:56 38.94089 -77.48044 465 ft 167 kts 290°
2026-04-25 15:56 38.94364 -77.48974 1061 ft 162 kts 293°
2026-04-25 15:56 38.94978 -77.50186 1861 ft 167 kts 324°
2026-04-25 15:57 38.96009 -77.50925 2538 ft 179 kts 336°
2026-04-25 15:57 38.97255 -77.51649 2856 ft 214 kts 338°
2026-04-25 15:57 38.98731 -77.52418 3116 ft 243 kts 341°
2026-04-25 15:57 39.00473 -77.52841 3615 ft 266 kts 353°
2026-04-25 15:58 39.02162 -77.53008 4310 ft 273 kts 354°
2026-04-25 15:58 39.03966 -77.53143 5369 ft 271 kts 354°
2026-04-25 15:58 39.05644 -77.53262 6141 ft 276 kts 354°
2026-04-25 15:58 39.07585 -77.53438 6951 ft 281 kts 353°
2026-04-25 15:59 39.09535 -77.53638 7740 ft 286 kts 352°
2026-04-25 15:59 39.11548 -77.53848 8533 ft 292 kts 352°
2026-04-25 15:59 39.13587 -77.54062 9334 ft 297 kts 352°
2026-04-25 15:59 39.15672 -77.54280 9985 ft 308 kts 352°
2026-04-25 16:00 39.17923 -77.54517 10243 ft 330 kts 352°
2026-04-25 16:00 39.18667 -77.54592 10567 ft 327 kts 352°
2026-04-25 16:00 39.22460 -77.54989 11916 ft 331 kts 351°
2026-04-25 16:00 39.24773 -77.55230 12699 ft 333 kts 351°
2026-04-25 16:01 39.27101 -77.55474 13173 ft 346 kts 351°
2026-04-25 16:01 39.29513 -77.55727 13869 ft 349 kts 351°
2026-04-25 16:01 39.31957 -77.55980 14414 ft 358 kts 351°
2026-04-25 16:01 39.34474 -77.56242 14920 ft 365 kts 351°
2026-04-25 16:02 39.36992 -77.56506 15594 ft 367 kts 351°
2026-04-25 16:02 39.39573 -77.56444 16234 ft 376 kts
2026-04-25 16:02 39.42144 -77.55703 16882 ft 381 kts 11°
2026-04-25 16:02 39.44704 -77.54697 17519 ft 385 kts 14°
2026-04-25 16:03 39.47220 -77.53520 18145 ft 389 kts 16°
2026-04-25 16:03 39.49747 -77.52275 18678 ft 392 kts 17°
2026-04-25 16:03 39.52314 -77.51017 19181 ft 395 kts 15°
2026-04-25 16:03 39.54923 -77.49800 19680 ft 397 kts 15°
2026-04-25 16:04 39.57544 -77.48590 20163 ft 401 kts 15°
2026-04-25 16:04 39.60151 -77.47384 20623 ft 404 kts 15°
2026-04-25 16:04 39.62818 -77.46152 21105 ft 407 kts 15°
2026-04-25 16:04 39.65559 -77.45329 21534 ft 401 kts
2026-04-25 16:05 39.68335 -77.45196 21990 ft 400 kts 355°
2026-04-25 16:05 39.71129 -77.45261 22435 ft 402 kts 354°
2026-04-25 16:05 39.76736 -77.45355 23316 ft 407 kts 355°
2026-04-25 16:06 39.79597 -77.45310 23709 ft 410 kts 356°
2026-04-25 16:06 39.82473 -77.45260 24065 ft 413 kts 356°
2026-04-25 16:06 39.85325 -77.45005 24391 ft 421 kts
2026-04-25 16:06 39.88223 -77.44216 24733 ft 424 kts
2026-04-25 16:07 39.91118 -77.43346 25036 ft 432 kts 15°
2026-04-25 16:07 39.92027 -77.42862 25133 ft 436 kts 21°
2026-04-25 16:07 39.96122 -77.38818 25656 ft 449 kts 38°
2026-04-25 16:07 39.98469 -77.36154 25940 ft 449 kts 35°
2026-04-25 16:08 40.00989 -77.33706 26233 ft 449 kts 30°
2026-04-25 16:08 40.03620 -77.31479 26511 ft 450 kts 28°
2026-04-25 16:08 40.06256 -77.29321 26790 ft 452 kts 28°
2026-04-25 16:08 40.08927 -77.27106 27087 ft 455 kts 28°
2026-04-25 16:09 40.11594 -77.24825 27364 ft 459 kts 29°
2026-04-25 16:09 40.14236 -77.22539 27682 ft 461 kts 29°
2026-04-25 16:09 40.16798 -77.20310 27980 ft 462 kts 29°
2026-04-25 16:09 40.19490 -77.17965 28186 ft 465 kts 29°
2026-04-25 16:10 40.22192 -77.15615 28553 ft 464 kts 29°
2026-04-25 16:10 40.24897 -77.13266 28815 ft 466 kts 29°
2026-04-25 16:10 40.27568 -77.10945 28942 ft 465 kts 29°
2026-04-25 16:11 40.32958 -77.06245 28992 ft 463 kts 29°
2026-04-25 16:11 40.38380 -77.01517 29009 ft 477 kts 29°
2026-04-25 16:12 40.43900 -76.96682 29014 ft 478 kts 29°
2026-04-25 16:12 40.49437 -76.91823 29007 ft 479 kts 29°
2026-04-25 16:13 40.55004 -76.86934 29006 ft 479 kts 29°
2026-04-25 16:13 40.60523 -76.82076 29013 ft 480 kts 29°
2026-04-25 16:14 40.66099 -76.77157 29063 ft 480 kts 29°
2026-04-25 16:14 40.71647 -76.72254 29068 ft 482 kts 29°
2026-04-25 16:15 40.77205 -76.67326 29021 ft 479 kts 29°
2026-04-25 16:15 40.82681 -76.62464 29018 ft 473 kts 29°
2026-04-25 16:16 40.87273 -76.58389 29015 ft 475 kts 29°
2026-04-25 16:16 40.92729 -76.53521 29027 ft 470 kts 29°
2026-04-25 16:17 40.98146 -76.48689 29036 ft 470 kts 28°
2026-04-25 16:17 41.03560 -76.43847 29028 ft 471 kts 29°
2026-04-25 16:18 41.08980 -76.38987 29008 ft 472 kts 28°
2026-04-25 16:18 41.14461 -76.34066 29021 ft 472 kts 29°
2026-04-25 16:19 41.19854 -76.29210 29056 ft 472 kts 28°
2026-04-25 16:19 41.25294 -76.24308 29050 ft 474 kts 28°
2026-04-25 16:20 41.33479 -76.16903 29025 ft 474 kts 29°
2026-04-25 16:21 41.41676 -76.09470 29037 ft 473 kts 28°
2026-04-25 16:21 41.47069 -76.04561 29067 ft 469 kts 28°
2026-04-25 16:22 41.52426 -75.99680 29067 ft 465 kts 28°
2026-04-25 16:22 41.57767 -75.94804 29079 ft 463 kts 28°
2026-04-25 16:23 41.63086 -75.89940 29120 ft 466 kts 28°
2026-04-25 16:23 41.68455 -75.85030 29123 ft 470 kts 28°
2026-04-25 16:24 41.73889 -75.80045 29146 ft 472 kts 28°
2026-04-25 16:24 41.79210 -75.75122 29064 ft 461 kts 28°
2026-04-25 16:25 41.84470 -75.70268 29057 ft 461 kts 28°
2026-04-25 16:25 41.89791 -75.65350 29095 ft 464 kts 31°
2026-04-25 16:25 41.92151 -75.62305 29077 ft 475 kts 44°
2026-04-25 16:26 41.94230 -75.58893 29071 ft 477 kts 45°
2026-04-25 16:26 41.98209 -75.51775 29072 ft 482 kts 52°
2026-04-25 16:27 42.01431 -75.43757 29072 ft 486 kts 58°
2026-04-25 16:27 42.04589 -75.35735 29079 ft 485 kts 55°
2026-04-25 16:28 42.07987 -75.27963 29085 ft 481 kts 51°
2026-04-25 16:28 42.11738 -75.20536 29081 ft 480 kts 50°
2026-04-25 16:29 42.15441 -75.13012 29099 ft 481 kts 50°
2026-04-25 16:29 42.19094 -75.05486 29082 ft 481 kts 50°
2026-04-25 16:30 42.22750 -74.97916 29089 ft 481 kts 50°
2026-04-25 16:30 42.26401 -74.90345 29098 ft 483 kts 50°
2026-04-25 16:31 42.30046 -74.82753 29090 ft 478 kts 50°
2026-04-25 16:31 42.33645 -74.75250 29105 ft 475 kts 50°
2026-04-25 16:32 42.37246 -74.67725 29086 ft 474 kts 50°
2026-04-25 16:32 42.40801 -74.60275 29096 ft 472 kts 50°
2026-04-25 16:33 42.44335 -74.52845 29090 ft 470 kts 50°
2026-04-25 16:33 42.47878 -74.45385 29085 ft 469 kts 50°
2026-04-25 16:34 42.51376 -74.37993 29096 ft 467 kts 50°
2026-04-25 16:34 42.54896 -74.30544 29094 ft 470 kts 50°
2026-04-25 16:35 42.58418 -74.23074 29093 ft 474 kts 50°
2026-04-25 16:35 42.61984 -74.15481 29104 ft 477 kts 50°
2026-04-25 16:36 42.65551 -74.07876 29099 ft 480 kts 50°
2026-04-25 16:36 42.69149 -74.00170 29101 ft 483 kts 50°
2026-04-25 16:37 42.72701 -73.92548 29096 ft 468 kts 50°
2026-04-25 16:37 42.76132 -73.85159 29092 ft 455 kts 49°
2026-04-25 16:38 42.79507 -73.77907 29107 ft 455 kts 50°
2026-04-25 16:38 42.82901 -73.70576 29108 ft 457 kts 50°
2026-04-25 16:39 42.86305 -73.63203 29100 ft 463 kts 51°
2026-04-25 16:39 42.89729 -73.55760 29104 ft 467 kts 51°
2026-04-25 16:40 42.93185 -73.48235 29062 ft 467 kts 51°
2026-04-25 16:40 42.94869 -73.44544 28754 ft 451 kts 51°
2026-04-25 16:40 42.96511 -73.40948 28404 ft 439 kts 51°
2026-04-25 16:40 42.98121 -73.37430 28054 ft 435 kts 51°
2026-04-25 16:41 42.99574 -73.33738 27716 ft 445 kts 60°
2026-04-25 16:41 43.00336 -73.31118 27508 ft 451 kts 64°
2026-04-25 16:41 43.02421 -73.21363 26731 ft 460 kts 69°
2026-04-25 16:42 43.03275 -73.17162 26380 ft 455 kts 68°
2026-04-25 16:42 43.04178 -73.13033 26042 ft 451 kts 67°
2026-04-25 16:42 43.05088 -73.09000 25718 ft 448 kts 67°
2026-04-25 16:42 43.05993 -73.04915 25378 ft 445 kts 67°
2026-04-25 16:43 43.06890 -73.00863 25052 ft 443 kts 67°
2026-04-25 16:43 43.07784 -72.96815 24719 ft 441 kts 67°
2026-04-25 16:43 43.08657 -72.92852 24418 ft 439 kts 66°
2026-04-25 16:43 43.09539 -72.88854 24098 ft 438 kts 66°
2026-04-25 16:44 43.10417 -72.84852 23826 ft 435 kts 66°
2026-04-25 16:44 43.11286 -72.80893 23520 ft 432 kts 66°
2026-04-25 16:44 43.12129 -72.77036 23188 ft 424 kts 66°
2026-04-25 16:44 43.12974 -72.73177 22843 ft 420 kts 66°
2026-04-25 16:45 43.13808 -72.69346 22502 ft 416 kts 66°
2026-04-25 16:45 43.14622 -72.65597 22188 ft 412 kts 66°
2026-04-25 16:45 43.15435 -72.61847 21880 ft 407 kts 66°
2026-04-25 16:45 43.16242 -72.58127 21591 ft 408 kts 66°
2026-04-25 16:46 43.17050 -72.54395 21293 ft 408 kts 66°
2026-04-25 16:46 43.17858 -72.50649 20992 ft 408 kts 66°
2026-04-25 16:46 43.18652 -72.46958 20720 ft 406 kts 66°
2026-04-25 16:46 43.18922 -72.45705 20622 ft 406 kts 66°
2026-04-25 16:47 43.20249 -72.39539 20140 ft 401 kts 66°
2026-04-25 16:47 43.21027 -72.35908 19859 ft 398 kts 67°
2026-04-25 16:47 43.21801 -72.32285 19580 ft 395 kts 66°
2026-04-25 16:47 43.22573 -72.28674 19288 ft 392 kts 66°
2026-04-25 16:48 43.23328 -72.25134 19003 ft 388 kts 67°
2026-04-25 16:48 43.24079 -72.21604 18723 ft 383 kts 67°
2026-04-25 16:48 43.24823 -72.18100 18453 ft 380 kts 66°
2026-04-25 16:48 43.25562 -72.14618 18145 ft 378 kts 67°
2026-04-25 16:49 43.26307 -72.11164 17846 ft 376 kts 67°
2026-04-25 16:49 43.27005 -72.07760 17523 ft 375 kts 68°
2026-04-25 16:49 43.27603 -72.04261 17209 ft 375 kts 71°
2026-04-25 16:49 43.28144 -72.00741 16880 ft 374 kts 71°
2026-04-25 16:50 43.28844 -71.97374 16575 ft 366 kts 63°
2026-04-25 16:50 43.29771 -71.94112 16270 ft 364 kts 61°
2026-04-25 16:50 43.30705 -71.90977 15931 ft 354 kts 60°
2026-04-25 16:50 43.31629 -71.87866 15582 ft 347 kts 61°
2026-04-25 16:51 43.32366 -71.84715 15232 ft 343 kts 66°
2026-04-25 16:51 43.33125 -71.81644 14879 ft 335 kts 63°
2026-04-25 16:51 43.33925 -71.78648 14593 ft 331 kts 63°
2026-04-25 16:51 43.34183 -71.77682 14503 ft 329 kts 63°
2026-04-25 16:52 43.35501 -71.72811 13990 ft 321 kts 62°
2026-04-25 16:52 43.36273 -71.69981 13655 ft 318 kts 62°
2026-04-25 16:52 43.37056 -71.67159 13333 ft 314 kts 62°
2026-04-25 16:52 43.37833 -71.64375 13012 ft 309 kts 62°
2026-04-25 16:53 43.39333 -71.58912 12399 ft 303 kts 63°
2026-04-25 16:53 43.40048 -71.56194 12101 ft 300 kts 63°
2026-04-25 16:53 43.40751 -71.53502 11813 ft 297 kts 64°
2026-04-25 16:54 43.41434 -71.50864 11544 ft 293 kts 64°
2026-04-25 16:54 43.42115 -71.48231 11269 ft 290 kts 64°
2026-04-25 16:54 43.42785 -71.45626 11016 ft 287 kts 64°
2026-04-25 16:54 43.43454 -71.43039 10752 ft 290 kts 64°
2026-04-25 16:55 43.44128 -71.40422 10491 ft 288 kts 65°
2026-04-25 16:55 43.44798 -71.37827 10232 ft 286 kts 65°
2026-04-25 16:55 43.45449 -71.35286 9975 ft 283 kts 65°
2026-04-25 16:55 43.46099 -71.32745 9673 ft 279 kts 65°
2026-04-25 16:56 43.46740 -71.30258 9394 ft 275 kts 65°
2026-04-25 16:56 43.47379 -71.27772 9125 ft 271 kts 66°
2026-04-25 16:56 43.47996 -71.25361 8871 ft 267 kts 65°
2026-04-25 16:56 43.48612 -71.22957 8606 ft 263 kts 66°
2026-04-25 16:57 43.49214 -71.20591 8338 ft 260 kts 66°
2026-04-25 16:57 43.49405 -71.19827 8245 ft 259 kts 66°
2026-04-25 16:57 43.50389 -71.15938 7799 ft 256 kts 66°
2026-04-25 16:57 43.50981 -71.13624 7508 ft 253 kts 67°
2026-04-25 16:58 43.51557 -71.11335 7198 ft 250 kts 67°
2026-04-25 16:58 43.52123 -71.09082 6950 ft 247 kts 67°
2026-04-25 16:58 43.52671 -71.06876 6705 ft 244 kts 67°
2026-04-25 16:58 43.53208 -71.04693 6521 ft 231 kts 67°
2026-04-25 16:59 43.53727 -71.02613 6359 ft 230 kts 66°
2026-04-25 16:59 43.54259 -71.00551 6178 ft 231 kts 66°
2026-04-25 16:59 43.54797 -70.98481 5931 ft 228 kts 66°
2026-04-25 16:59 43.55332 -70.96395 5670 ft 231 kts 66°
2026-04-25 17:00 43.55864 -70.94316 5413 ft 234 kts 66°
2026-04-25 17:00 43.56395 -70.92198 5229 ft 229 kts 67°
2026-04-25 17:00 43.56743 -70.90835 5126 ft 223 kts 67°
2026-04-25 17:00 43.57392 -70.88191 4896 ft 217 kts 67°
2026-04-25 17:01 43.57705 -70.86911 4807 ft 208 kts 67°
2026-04-25 17:01 43.58164 -70.85040 4646 ft 205 kts 66°
2026-04-25 17:01 43.58650 -70.83124 4479 ft 214 kts 65°
2026-04-25 17:01 43.59153 -70.81194 4299 ft 212 kts 66°
2026-04-25 17:02 43.59635 -70.79292 4128 ft 212 kts 66°
2026-04-25 17:02 43.60122 -70.77356 3950 ft 211 kts 66°
2026-04-25 17:02 43.60591 -70.75443 3777 ft 209 kts 66°
2026-04-25 17:02 43.60903 -70.74183 3661 ft 209 kts 66°
2026-04-25 17:03 43.61539 -70.71650 3436 ft 209 kts 66°
2026-04-25 17:03 43.61978 -70.69873 3230 ft 190 kts 66°
2026-04-25 17:03 43.62429 -70.68107 3036 ft 198 kts 65°
2026-04-25 17:03 43.62887 -70.66312 2856 ft 191 kts 65°
2026-04-25 17:04 43.63299 -70.64642 2665 ft 184 kts 66°
2026-04-25 17:04 43.63730 -70.62931 2461 ft 190 kts 65°
2026-04-25 17:04 43.64161 -70.61227 2360 ft 184 kts 65°
2026-04-25 17:04 43.64566 -70.59589 2309 ft 180 kts 66°
2026-04-25 17:05 43.64968 -70.57941 2283 ft 178 kts 66°
2026-04-25 17:05 43.65731 -70.54848 2375 ft 164 kts 66°
2026-04-25 17:05 43.65986 -70.53374 2243 ft 162 kts 85°
2026-04-25 17:06 43.65890 -70.51829 2186 ft 157 kts 88°
2026-04-25 17:06 43.65804 -70.50438 1994 ft 133 kts 90°
2026-04-25 17:06 43.65716 -70.49165 1852 ft 133 kts 89°
2026-04-25 17:06 43.65628 -70.47866 1853 ft 138 kts 89°
2026-04-25 17:07 43.65504 -70.46536 1789 ft 140 kts 92°
2026-04-25 17:07 43.65359 -70.45220 1744 ft 140 kts 91°
2026-04-25 17:07 43.65279 -70.43880 1660 ft 139 kts 87°
2026-04-25 17:07 43.65207 -70.42542 1545 ft 139 kts 89°
2026-04-25 17:08 43.65129 -70.41222 1427 ft 138 kts 90°
2026-04-25 17:08 43.65049 -70.39898 1169 ft 136 kts 88°
2026-04-25 17:08 43.64974 -70.38613 949 ft 136 kts 90°
2026-04-25 17:08 43.64903 -70.37292 829 ft 139 kts 92°
2026-04-25 17:09 43.64817 -70.35958 651 ft 138 kts 94°
2026-04-25 17:09 43.64722 -70.34666 471 ft 137 kts 94°
2026-04-25 17:09 43.64642 -70.33381 242 ft 127 kts 95°
2026-04-25 17:09 43.64564 -70.32281 79 ft 106 kts 95°
2026-04-25 17:10 43.64510 -70.31455 63 ft 62 kts 96°
2026-04-25 17:10 43.64482 -70.31039 61 ft 25 kts 96°
2026-04-25 17:10 43.64468 -70.30842 57 ft 15 kts 96°
2026-04-25 17:10 43.64472 -70.30716 55 ft 10 kts 58°
2026-04-25 17:11 43.64524 -70.30694 55 ft 5 kts 356°
2026-04-25 17:11 43.64542 -70.30696 55 ft 4 kts 349°
2026-04-25 17:11 43.64567 -70.30720 55 ft 3 kts 295°
2026-04-25 17:11 43.64572 -70.30753 53 ft 4 kts 278°
2026-04-25 17:12 43.64576 -70.30799 54 ft 5 kts 276°
2026-04-25 17:12 43.64580 -70.30852 57 ft 3 kts 277°
2026-04-25 17:12 43.64586 -70.30867 57 ft 2 kts 315°
2026-04-25 17:12 43.64596 -70.30874 53 ft 1 kts 349°
2026-04-25 17:13 43.64617 -70.30875 57 ft 4 kts
2026-04-25 17:13 43.64633 -70.30874 55 ft 3 kts
2026-04-25 17:13 43.64647 -70.30872 58 ft 1 kts